Miscellaneous Local Product
Issued by NWS Hastings, NE

Home | Current Version | Previous Version | Graphics & Text | Print | Product List | Glossary On
Versions: 1 2 3 4 5 6 7 8 9 10 11 12 13 14 15 16 17 18 19 20 21 22 23 24 25 26 27 28 29 30 31 32 33 34 35 36 37 38 39 40 41 42 43 44 45 46 47 48 49 50
000
AXUS43 KGID 260702
MISGRI

GID CWA HOURLY WEATHER ROUNDUP
NATIONAL WEATHER SERVICE HASTINGS NE
200 AM CDT FRI AUG 26 2016

NOTE: "FAIR" INDICATES FEW OR NO CLOUDS BELOW 12,000 FEET WITH NO
SIGNIFICANT WEATHER AND/OR OBSTRUCTIONS TO VISIBILITY.

...SOUTH CENTRAL NEBRASKA...

CITY           SKY/WX    TMP DP  RH WIND       PRES   REMARKS
GRAND ISLAND   FAIR      55  54  96 CALM      30.19S
HASTINGS       FAIR      58  55  90 NE3       30.19S
KEARNEY        FAIR      57  54  88 E3        30.18F
ORD            FAIR      55  51  86 CALM      30.18F
YORK           FAIR      55  55 100 CALM      30.18F
AURORA         FAIR      57  56  98 E5        30.18F
LEXINGTON      FAIR      58  55  89 SE3       30.19F
HOLDREGE       FAIR      57  55  92 CALM      30.19F
HEBRON         FAIR      61  59  92 CALM      30.15F

...NEBRASKA PANHANDLE...

CITY           SKY/WX    TMP DP  RH WIND       PRES   REMARKS
CHADRON        CLOUDY    58  48  69 E5        30.20F
ALLIANCE       FAIR      52  46  80 SE7       30.20F
SCOTTSBLUFF    MOCLDY    56  47  71 E9        30.19S
SIDNEY         FAIR      53  46  77 SE8       30.22F

...WESTERN AND NORTH CENTRAL NEBRASKA...

CITY           SKY/WX    TMP DP  RH WIND       PRES   REMARKS
VALENTINE      FAIR      49  45  86 CALM      30.21F
AINSWORTH      FAIR      53  49  87 CALM      30.21F
ONEILL         FAIR      54  52  92 CALM      30.19F
BROKEN BOW     FAIR      51  50  96 CALM      30.19F
IMPERIAL       FAIR      57  50  77 SE6       30.20F
NORTH PLATTE   FAIR      55  52  89 E7        30.19F
MCCOOK         FAIR      59  54  83 SE5       30.18F

...EASTERN NEBRASKA...

CITY           SKY/WX    TMP DP  RH WIND       PRES   REMARKS
NORFOLK        FAIR      56  54  93 SW3       30.18F
SO SIOUX CITY  FAIR      59  56  89 NW5       30.17S
TEKAMAH        FAIR      58  55  90 CALM      30.16S
COLUMBUS       FAIR      54  46  76 CALM      30.18S
ALBION         FAIR      55  53  91 CALM      30.19F
OMAHA EPPLEY   FAIR      60  57  89 N5        30.15S
OFFUTT AFB     FAIR      59  59  99 CALM      30.14F
MILLARD        FAIR      62  59  88 NW3       30.15F
LINCOLN        FAIR      60  58  92 N5        30.16F
NEBRASKA CITY  FAIR      62  62 100 CALM      30.15S
BEATRICE       FAIR      61  60  95 CALM      30.15S
FALLS CITY     FAIR      64  61  90 N3        30.11F

...NORTHERN KANSAS...

CITY           SKY/WX    TMP DP  RH WIND       PRES   REMARKS
GOODLAND       FAIR      56  51  84 S5        30.20S
HILL CITY      MOCLDY    59  57  93 N6        30.18S
NORTON         CLOUDY    59  50  72 NE3       30.17F
SMITH CENTER   PTCLDY    61  57  88 NE8       30.17F
BELOIT         CLEAR     61  57  88 N5        30.14R
HAYS           MOCLDY    63  54  72 NE7       30.15F
RUSSELL        MOCLDY    62  59  90 N7        30.14R
CONCORDIA      FAIR      62  59  90 NE6       30.14
SALINA         CLOUDY    69  61  75 NE7       30.12S
TOPEKA         CLOUDY    70  64  81 NE3       30.10S



USA.gov is the U.S. government's official web portal to all federal, state and local government web resources and services.